Terug naar catalogus

ATLAS 14E R/B

ActiefHEO
NORAD 15272·ROCKET BODY·🇺🇸 United States

Gelanceerd Sep 8, 1984 vanaf Vandenberg Space Force Base

Loading…

Volgende Passages (komende 24 uur)

TLE

VersSource: Space-Track

Epoch: Sep 13, 2026, 04:33 UTC

1 15272U 84097B   26256.19004220 -.00000011  00000-0  00000-0 0  9997
2 15272  64.9645 273.6880 5172621 282.0338  81.2882  3.90011429598366

Volg ATLAS 14E R/B in realtime met AllMySat

Download on the App Store